| time (UTC) | temp F | wind direction | speed MPH | gust MPH | rain 1hr in | rain 24hr in | rain mn in | humidity % | barometer mb |
| 20260506002503 | 45 | 33 | 0.0 | 1.0 | 0.00 | 0.00 | 0.00 | 81 | 1010.0 |
| 20260506002003 | 45 | 26 | 1.0 | 3.0 | 0.00 | 0.00 | 0.00 | 81 | 1009.6 |
| 20260506001503 | 45 | 25 | 1.0 | 3.0 | 0.00 | 0.00 | 0.00 | 81 | 1009.8 |
| 20260506001003 | 45 | 26 | 1.0 | 3.0 | 0.00 | 0.00 | 0.00 | 81 | 1009.9 |
| 20260506000718 | 45 | 28 | 0.0 | 3.0 | 0.00 | 0.00 | 0.00 | 80 | 1010.1 |
| 20260506000003 | 45 | 29 | 0.0 | 1.0 | 0.00 | 0.00 | 0.00 | 80 | 1010.0 |
| 20260505235503 | 46 | 27 | 0.0 | 3.0 | 0.00 | 0.00 | 0.00 | 79 | 1010.0 |
| 20260505235217 | 46 | 24 | 1.0 | 3.0 | 0.00 | 0.00 | 0.00 | 79 | 1009.9 |
| 20260505234503 | 46 | 23 | 1.0 | 4.0 | 0.00 | 0.00 | 0.00 | 80 | 1009.9 |
| 20260505234003 | 46 | 25 | 0.0 | 4.0 | 0.00 | 0.00 | 0.00 | 80 | 1010.3 |
| 20260505233503 | 46 | 0 | 0.0 | 1.0 | 0.00 | 0.00 | 0.00 | 80 | 1010.2 |
| 20260505233003 | 46 | 28 | 0.0 | 1.0 | 0.00 | 0.00 | 0.00 | 80 | 1010.1 |
| 20260505232503 | 46 | 28 | 0.0 | 1.0 | 0.00 | 0.00 | 0.00 | 81 | 1010.2 |
| 20260505232003 | 46 | 22 | 0.0 | 3.0 | 0.00 | 0.00 | 0.00 | 80 | 1010.1 |
| 20260505231503 | 46 | 21 | 0.0 | 3.0 | 0.00 | 0.00 | 0.00 | 80 | 1010.1 |
| 20260505231003 | 46 | 20 | 0.0 | 3.0 | 0.00 | 0.00 | 0.00 | 80 | 1010.0 |
| 20260505230503 | 46 | 3 | 0.0 | 3.0 | 0.00 | 0.00 | 0.00 | 80 | 1010.3 |
| 20260505230003 | 46 | 357 | 0.0 | 3.0 | 0.00 | 0.00 | 0.00 | 79 | 1009.9 |
| 20260505225503 | 46 | 16 | 0.0 | 3.0 | 0.00 | 0.00 | 0.00 | 79 | 1010.1 |
| 20260505225003 | 46 | 20 | 1.0 | 3.0 | 0.00 | 0.00 | 0.00 | 79 | 1010.2 |
| 20260505224503 | 46 | 21 | 1.0 | 3.0 | 0.00 | 0.00 | 0.00 | 79 | 1010.2 |
| 20260505224003 | 46 | 21 | 1.0 | 3.0 | 0.00 | 0.00 | 0.00 | 78 | 1010.1 |
| 20260505223503 | 46 | 21 | 2.0 | 4.0 | 0.00 | 0.00 | 0.00 | 78 | 1010.2 |
| 20260505223003 | 47 | 18 | 2.0 | 4.0 | 0.00 | 0.00 | 0.00 | 78 | 1010.2 |
| 20260505222503 | 47 | 17 | 2.0 | 4.0 | 0.00 | 0.00 | 0.00 | 78 | 1010.2 |
| 20260505222003 | 47 | 23 | 2.0 | 4.0 | 0.00 | 0.00 | 0.00 | 78 | 1010.3 |
| 20260505221503 | 47 | 22 | 2.0 | 4.0 | 0.00 | 0.00 | 0.00 | 78 | 1010.1 |
| 20260505221003 | 47 | 19 | 2.0 | 5.0 | 0.00 | 0.00 | 0.00 | 78 | 1010.3 |
| 20260505220717 | 47 | 18 | 2.0 | 5.0 | 0.00 | 0.00 | 0.00 | 77 | 1010.3 |
| 20260505220003 | 47 | 15 | 2.0 | 5.0 | 0.00 | 0.00 | 0.00 | 77 | 1010.2 |
| 20260505215503 | 47 | 15 | 1.0 | 5.0 | 0.00 | 0.00 | 0.00 | 76 | 1010.4 |
| 20260505215003 | 47 | 19 | 1.0 | 3.0 | 0.00 | 0.00 | 0.00 | 76 | 1010.4 |
| 20260505214717 | 47 | 22 | 1.0 | 3.0 | 0.00 | 0.00 | 0.00 | 76 | 1010.5 |
| 20260505214003 | 47 | 23 | 1.0 | 4.0 | 0.00 | 0.00 | 0.00 | 76 | 1010.1 |
| 20260505213503 | 47 | 23 | 1.0 | 4.0 | 0.00 | 0.00 | 0.00 | 75 | 1010.4 |
| 20260505213003 | 48 | 24 | 2.0 | 4.0 | 0.00 | 0.00 | 0.00 | 75 | 1010.2 |
| 20260505212717 | 48 | 24 | 2.0 | 4.0 | 0.00 | 0.00 | 0.00 | 74 | 1010.4 |
| 20260505212003 | 48 | 23 | 2.0 | 4.0 | 0.00 | 0.00 | 0.00 | 74 | 1010.4 |
| 20260505211503 | 48 | 27 | 2.0 | 4.0 | 0.00 | 0.00 | 0.00 | 74 | 1010.5 |
| 20260505211003 | 49 | 24 | 2.0 | 5.0 | 0.00 | 0.00 | 0.00 | 73 | 1010.6 |
| 20260505210503 | 49 | 21 | 2.0 | 5.0 | 0.00 | 0.00 | 0.00 | 73 | 1010.5 |
| 20260505210003 | 49 | 26 | 3.0 | 5.0 | 0.00 | 0.00 | 0.00 | 73 | 1010.7 |
| 20260505205717 | 49 | 30 | 2.0 | 5.0 | 0.00 | 0.00 | 0.00 | 73 | 1010.5 |
| 20260505205003 | 49 | 27 | 3.0 | 7.0 | 0.00 | 0.00 | 0.00 | 72 | 1010.7 |
| 20260505204503 | 49 | 25 | 3.0 | 7.0 | 0.00 | 0.00 | 0.00 | 72 | 1010.7 |
| 20260505204003 | 50 | 27 | 3.0 | 8.0 | 0.00 | 0.00 | 0.00 | 72 | 1010.6 |
| 20260505203503 | 50 | 27 | 4.0 | 8.0 | 0.00 | 0.00 | 0.00 | 72 | 1010.6 |
| 20260505203003 | 50 | 23 | 4.0 | 8.0 | 0.00 | 0.00 | 0.00 | 71 | 1010.5 |
| 20260505202503 | 50 | 21 | 4.0 | 8.0 | 0.00 | 0.00 | 0.00 | 71 | 1010.5 |
| 20260505202218 | 50 | 23 | 4.0 | 10.0 | 0.00 | 0.00 | 0.00 | 71 | 1010.6 |
| 20260505201503 | 50 | 25 | 4.0 | 10.0 | 0.00 | 0.00 | 0.00 | 70 | 1010.4 |
| 20260505201003 | 51 | 27 | 4.0 | 8.0 | 0.00 | 0.00 | 0.00 | 70 | 1010.6 |
| 20260505200716 | 51 | 29 | 4.0 | 8.0 | 0.00 | 0.00 | 0.00 | 70 | 1010.7 |
| 20260505200003 | 51 | 24 | 4.0 | 8.0 | 0.00 | 0.00 | 0.00 | 70 | 1010.5 |
| 20260505195503 | 51 | 24 | 4.0 | 10.0 | 0.00 | 0.00 | 0.00 | 69 | 1010.6 |
| 20260505195003 | 51 | 22 | 3.0 | 10.0 | 0.00 | 0.00 | 0.00 | 69 | 1010.3 |
| 20260505194503 | 51 | 18 | 3.0 | 8.0 | 0.00 | 0.00 | 0.00 | 69 | 1010.4 |
| 20260505194003 | 51 | 22 | 3.0 | 5.0 | 0.00 | 0.00 | 0.00 | 68 | 1010.3 |
| 20260505193718 | 51 | 27 | 2.0 | 5.0 | 0.00 | 0.00 | 0.00 | 68 | 1010.3 |
| 20260505193003 | 51 | 30 | 3.0 | 7.0 | 0.00 | 0.00 | 0.00 | 67 | 1010.2 |
| 20260505192503 | 52 | 28 | 3.0 | 7.0 | 0.00 | 0.00 | 0.00 | 67 | 1010.3 |
| 20260505192003 | 52 | 23 | 3.0 | 7.0 | 0.00 | 0.00 | 0.00 | 67 | 1010.4 |
| 20260505191718 | 52 | 23 | 3.0 | 7.0 | 0.00 | 0.00 | 0.00 | 67 | 1010.3 |
| 20260505191003 | 52 | 31 | 3.0 | 7.0 | 0.00 | 0.00 | 0.00 | 66 | 1010.2 |
| 20260505190503 | 53 | 32 | 3.0 | 5.0 | 0.00 | 0.00 | 0.00 | 66 | 1010.2 |
| 20260505190217 | 53 | 31 | 2.0 | 5.0 | 0.00 | 0.00 | 0.00 | 65 | 1010.2 |
| 20260505185503 | 53 | 26 | 2.0 | 5.0 | 0.00 | 0.00 | 0.00 | 65 | 1009.9 |
| 20260505185003 | 53 | 28 | 3.0 | 7.0 | 0.00 | 0.00 | 0.00 | 64 | 1009.9 |
| 20260505184503 | 54 | 29 | 3.0 | 7.0 | 0.00 | 0.00 | 0.00 | 64 | 1010.0 |
| 20260505184003 | 54 | 28 | 3.0 | 8.0 | 0.00 | 0.00 | 0.00 | 64 | 1010.1 |
| 20260505183503 | 54 | 32 | 3.0 | 8.0 | 0.00 | 0.00 | 0.00 | 64 | 1010.0 |
| 20260505183217 | 54 | 34 | 3.0 | 8.0 | 0.00 | 0.00 | 0.00 | 64 | 1009.8 |
| 20260505182503 | 54 | 34 | 3.0 | 7.0 | 0.00 | 0.00 | 0.00 | 64 | 1010.0 |
| 20260505182003 | 54 | 31 | 2.0 | 5.0 | 0.00 | 0.00 | 0.00 | 64 | 1010.0 |
| 20260505181503 | 55 | 34 | 2.0 | 5.0 | 0.00 | 0.00 | 0.00 | 64 | 1010.1 |
| 20260505181003 | 55 | 32 | 3.0 | 8.0 | 0.00 | 0.00 | 0.00 | 64 | 1009.9 |
| 20260505180718 | 55 | 29 | 3.0 | 8.0 | 0.00 | 0.00 | 0.00 | 64 | 1009.9 |
| 20260505180003 | 55 | 24 | 3.0 | 8.0 | 0.00 | 0.00 | 0.00 | 64 | 1009.7 |
| 20260505175503 | 55 | 26 | 3.0 | 8.0 | 0.00 | 0.00 | 0.00 | 64 | 1010.0 |
| 20260505175003 | 55 | 27 | 4.0 | 10.0 | 0.00 | 0.00 | 0.00 | 64 | 1009.8 |
| 20260505174503 | 55 | 28 | 4.0 | 10.0 | 0.00 | 0.00 | 0.00 | 63 | 1009.9 |
| 20260505174003 | 56 | 22 | 3.0 | 8.0 | 0.00 | 0.00 | 0.00 | 63 | 1009.8 |
| 20260505173503 | 56 | 27 | 3.0 | 8.0 | 0.00 | 0.00 | 0.00 | 63 | 1010.1 |
| 20260505173003 | 56 | 37 | 4.0 | 8.0 | 0.00 | 0.00 | 0.00 | 63 | 1010.0 |
| 20260505172503 | 56 | 27 | 4.0 | 8.0 | 0.00 | 0.00 | 0.00 | 64 | 1010.1 |
| 20260505172216 | 56 | 20 | 3.0 | 8.0 | 0.00 | 0.00 | 0.00 | 63 | 1010.0 |
| 20260505171503 | 56 | 31 | 2.0 | 7.0 | 0.00 | 0.00 | 0.00 | 63 | 1010.2 |
| 20260505171003 | 56 | 30 | 1.0 | 5.0 | 0.00 | 0.00 | 0.00 | 63 | 1010.1 |
| 20260505170503 | 56 | 28 | 2.0 | 8.0 | 0.00 | 0.00 | 0.00 | 63 | 1010.5 |
| 20260505170218 | 57 | 25 | 3.0 | 10.0 | 0.00 | 0.00 | 0.00 | 63 | 1010.3 |
| 20260505165503 | 57 | 28 | 4.0 | 10.0 | 0.00 | 0.00 | 0.00 | 63 | 1010.2 |
| 20260505165218 | 57 | 27 | 4.0 | 10.0 | 0.00 | 0.00 | 0.00 | 62 | 1010.2 |
| 20260505164503 | 57 | 22 | 4.0 | 10.0 | 0.00 | 0.00 | 0.00 | 62 | 1010.1 |
| 20260505164218 | 57 | 16 | 5.0 | 10.0 | 0.00 | 0.00 | 0.00 | 62 | 1010.2 |
| 20260505163503 | 57 | 18 | 5.0 | 10.0 | 0.00 | 0.00 | 0.00 | 61 | 1010.0 |
| 20260505163003 | 57 | 32 | 5.0 | 10.0 | 0.00 | 0.00 | 0.00 | 61 | 1010.1 |
| 20260505162717 | 57 | 35 | 5.0 | 10.0 | 0.00 | 0.00 | 0.00 | 61 | 1010.3 |
| 20260505162003 | 57 | 34 | 5.0 | 11.0 | 0.00 | 0.00 | 0.00 | 60 | 1010.2 |
| 20260505161503 | 57 | 27 | 5.0 | 11.0 | 0.00 | 0.00 | 0.00 | 60 | 1010.4 |
| 20260505161003 | 58 | 29 | 5.0 | 11.0 | 0.00 | 0.00 | 0.00 | 60 | 1010.3 |
| 20260505160503 | 58 | 32 | 5.0 | 10.0 | 0.00 | 0.00 | 0.00 | 60 | 1010.2 |
| 20260505153218 | 58 | 22 | 4.0 | 10.0 | 0.00 | 0.00 | 0.00 | 58 | 1010.5 |
| 20260505152503 | 59 | 25 | 4.0 | 12.0 | 0.00 | 0.00 | 0.00 | 58 | 1010.6 |
| 20260505152218 | 59 | 24 | 5.0 | 14.0 | 0.00 | 0.00 | 0.00 | 59 | 1010.5 |
| 20260505151503 | 59 | 27 | 5.0 | 14.0 | 0.00 | 0.00 | 0.00 | 58 | 1010.6 |
| 20260505151003 | 59 | 29 | 4.0 | 10.0 | 0.00 | 0.00 | 0.00 | 58 | 1010.5 |
| 20260505150503 | 59 | 29 | 4.0 | 10.0 | 0.00 | 0.00 | 0.00 | 57 | 1010.7 |
| 20260505140503 | 59 | 33 | 5.0 | 14.0 | 0.00 | 0.00 | 0.00 | 58 | 1010.5 |
| 20260505125003 | 59 | 21 | 6.0 | 14.0 | 0.00 | 0.00 | 0.00 | 63 | 1010.9 |
| 20260505124718 | 59 | 22 | 6.0 | 14.0 | 0.00 | 0.00 | 0.00 | 63 | 1011.0 |
| 20260505124003 | 59 | 26 | 5.0 | 11.0 | 0.00 | 0.00 | 0.00 | 64 | 1011.0 |
| 20260505123503 | 59 | 25 | 5.0 | 11.0 | 0.00 | 0.00 | 0.00 | 64 | 1010.9 |
| 20260505123003 | 59 | 27 | 5.0 | 11.0 | 0.00 | 0.00 | 0.00 | 64 | 1010.9 |
| 20260505122503 | 58 | 27 | 5.0 | 12.0 | 0.00 | 0.00 | 0.00 | 64 | 1010.7 |
| 20260505122003 | 58 | 26 | 4.0 | 12.0 | 0.00 | 0.00 | 0.00 | 64 | 1010.8 |
| 20260505121503 | 58 | 32 | 5.0 | 15.0 | 0.00 | 0.00 | 0.00 | 65 | 1011.0 |
| 20260505121221 | 58 | 33 | 5.0 | 15.0 | 0.00 | 0.00 | 0.00 | 65 | 1010.7 |
| 20260505120503 | 58 | 32 | 4.0 | 11.0 | 0.00 | 0.00 | 0.00 | 65 | 1010.9 |
| 20260505120004 | 58 | 31 | 5.0 | 12.0 | 0.00 | 0.00 | 0.00 | 65 | 1011.0 |
| 20260505115503 | 58 | 34 | 6.0 | 14.0 | 0.00 | 0.00 | 0.00 | 65 | 1011.1 |
| 20260505115003 | 58 | 41 | 6.0 | 14.0 | 0.00 | 0.00 | 0.00 | 65 | 1010.9 |
| 20260505114717 | 58 | 32 | 5.0 | 14.0 | 0.00 | 0.00 | 0.00 | 65 | 1011.0 |
| 20260505114003 | 58 | 20 | 4.0 | 14.0 | 0.00 | 0.00 | 0.00 | 66 | 1010.9 |
| 20260505113503 | 58 | 31 | 4.0 | 14.0 | 0.00 | 0.00 | 0.00 | 66 | 1011.0 |
| 20260505113003 | 58 | 33 | 5.0 | 12.0 | 0.00 | 0.00 | 0.00 | 67 | 1011.2 |
| 20260505112503 | 58 | 29 | 6.0 | 12.0 | 0.00 | 0.00 | 0.00 | 67 | 1011.0 |
| 20260505112003 | 57 | 24 | 4.0 | 11.0 | 0.00 | 0.00 | 0.00 | 67 | 1011.0 |
| 20260505111503 | 57 | 19 | 5.0 | 11.0 | 0.00 | 0.00 | 0.00 | 68 | 1011.0 |
| 20260505111003 | 57 | 16 | 5.0 | 10.0 | 0.00 | 0.00 | 0.00 | 68 | 1011.3 |
| 20260505110717 | 57 | 29 | 6.0 | 12.0 | 0.00 | 0.00 | 0.00 | 69 | 1011.2 |
| 20260505102218 | 56 | 30 | 4.0 | 12.0 | 0.00 | 0.00 | 0.00 | 71 | 1011.2 |
| 20260505101503 | 56 | 24 | 4.0 | 11.0 | 0.00 | 0.00 | 0.00 | 72 | 1011.4 |
| 20260505101003 | 56 | 28 | 3.0 | 11.0 | 0.00 | 0.00 | 0.00 | 73 | 1011.4 |
| 20260505100503 | 55 | 31 | 3.0 | 8.0 | 0.00 | 0.00 | 0.00 | 72 | 1011.4 |
| 20260505100003 | 55 | 24 | 3.0 | 11.0 | 0.00 | 0.00 | 0.00 | 72 | 1011.5 |
| 20260505095717 | 55 | 22 | 3.0 | 11.0 | 0.00 | 0.00 | 0.00 | 72 | 1011.5 |
| 20260505095003 | 55 | 30 | 3.0 | 11.0 | 0.00 | 0.00 | 0.00 | 72 | 1011.5 |
| 20260505094503 | 55 | 23 | 4.0 | 11.0 | 0.00 | 0.00 | 0.00 | 72 | 1011.5 |
| 20260505094003 | 55 | 13 | 5.0 | 12.0 | 0.00 | 0.00 | 0.00 | 73 | 1011.5 |
| 20260505093503 | 54 | 24 | 5.0 | 14.0 | 0.00 | 0.00 | 0.00 | 73 | 1011.5 |
| 20260505093003 | 54 | 31 | 5.0 | 15.0 | 0.00 | 0.00 | 0.00 | 73 | 1011.6 |
| 20260505092503 | 54 | 26 | 4.0 | 15.0 | 0.00 | 0.00 | 0.00 | 73 | 1011.7 |
| 20260505092003 | 54 | 27 | 4.0 | 11.0 | 0.00 | 0.00 | 0.00 | 73 | 1011.8 |
| 20260505091503 | 54 | 32 | 4.0 | 14.0 | 0.00 | 0.00 | 0.00 | 73 | 1011.6 |
| 20260505091003 | 54 | 32 | 5.0 | 14.0 | 0.00 | 0.00 | 0.00 | 74 | 1011.8 |
| 20260505090503 | 54 | 25 | 5.0 | 12.0 | 0.00 | 0.00 | 0.00 | 73 | 1011.8 |
| 20260505090217 | 54 | 24 | 4.0 | 12.0 | 0.00 | 0.00 | 0.00 | 73 | 1011.7 |
| 20260505085503 | 53 | 34 | 3.0 | 12.0 | 0.00 | 0.00 | 0.00 | 73 | 1011.8 |
| 20260505085003 | 53 | 36 | 4.0 | 14.0 | 0.00 | 0.00 | 0.00 | 73 | 1011.8 |
| 20260505084503 | 53 | 32 | 6.0 | 14.0 | 0.00 | 0.00 | 0.00 | 73 | 1011.9 |
| 20260505084003 | 53 | 29 | 6.0 | 12.0 | 0.00 | 0.00 | 0.00 | 75 | 1011.7 |
| 20260505083503 | 53 | 29 | 5.0 | 11.0 | 0.00 | 0.00 | 0.00 | 76 | 1011.8 |
| 20260505083003 | 53 | 19 | 5.0 | 14.0 | 0.00 | 0.00 | 0.00 | 76 | 1011.9 |
| 20260505082503 | 52 | 21 | 6.0 | 14.0 | 0.00 | 0.00 | 0.00 | 77 | 1011.9 |
| 20260505082003 | 52 | 25 | 5.0 | 14.0 | 0.00 | 0.00 | 0.00 | 79 | 1011.9 |
| 20260505081503 | 52 | 38 | 5.0 | 15.0 | 0.00 | 0.00 | 0.00 | 78 | 1011.7 |
| 20260505081003 | 52 | 47 | 5.0 | 15.0 | 0.00 | 0.00 | 0.00 | 79 | 1011.9 |
| 20260505080718 | 51 | 42 | 6.0 | 15.0 | 0.00 | 0.00 | 0.00 | 79 | 1011.8 |
| 20260505080217 | 51 | 28 | 5.0 | 12.0 | 0.00 | 0.00 | 0.00 | 79 | 1011.7 |
| 20260505075503 | 51 | 23 | 5.0 | 12.0 | 0.00 | 0.00 | 0.00 | 80 | 1011.7 |
| 20260505075217 | 51 | 33 | 5.0 | 11.0 | 0.00 | 0.00 | 0.00 | 80 | 1011.9 |
| 20260505074503 | 51 | 30 | 4.0 | 11.0 | 0.00 | 0.00 | 0.00 | 81 | 1011.8 |
| 20260505074003 | 51 | 22 | 4.0 | 11.0 | 0.00 | 0.00 | 0.00 | 81 | 1011.9 |
| 20260505073718 | 50 | 21 | 4.0 | 8.0 | 0.00 | 0.00 | 0.00 | 82 | 1011.9 |
| 20260505073003 | 50 | 33 | 4.0 | 12.0 | 0.00 | 0.00 | 0.00 | 83 | 1011.9 |
| 20260505072718 | 50 | 33 | 4.0 | 12.0 | 0.00 | 0.00 | 0.00 | 83 | 1012.1 |
| 20260505072003 | 49 | 22 | 4.0 | 14.0 | 0.00 | 0.00 | 0.00 | 83 | 1012.0 |
| 20260505071718 | 49 | 18 | 4.0 | 15.0 | 0.00 | 0.00 | 0.00 | 83 | 1012.0 |
| 20260505071217 | 49 | 19 | 4.0 | 15.0 | 0.00 | 0.00 | 0.00 | 83 | 1011.8 |
| 20260505070503 | 49 | 24 | 4.0 | 10.0 | 0.00 | 0.00 | 0.00 | 84 | 1012.2 |
| 20260505070003 | 49 | 26 | 5.0 | 12.0 | 0.00 | 0.00 | 0.00 | 84 | 1012.1 |
| 20260505065503 | 49 | 22 | 5.0 | 12.0 | 0.00 | 0.00 | 0.00 | 84 | 1011.9 |
| 20260505065003 | 49 | 26 | 5.0 | 10.0 | 0.00 | 0.00 | 0.00 | 85 | 1012.0 |
| 20260505064503 | 48 | 23 | 5.0 | 12.0 | 0.00 | 0.00 | 0.00 | 85 | 1012.2 |
| 20260505064003 | 48 | 23 | 6.0 | 12.0 | 0.00 | 0.00 | 0.00 | 85 | 1012.2 |
| 20260505063717 | 48 | 22 | 6.0 | 14.0 | 0.00 | 0.00 | 0.00 | 85 | 1012.2 |
| 20260505063003 | 47 | 21 | 5.0 | 14.0 | 0.00 | 0.00 | 0.00 | 86 | 1012.1 |
| 20260505062503 | 47 | 16 | 4.0 | 10.0 | 0.00 | 0.00 | 0.00 | 86 | 1012.2 |
| 20260505062003 | 47 | 20 | 4.0 | 10.0 | 0.00 | 0.00 | 0.00 | 86 | 1012.0 |
| 20260505061503 | 46 | 23 | 3.0 | 10.0 | 0.00 | 0.00 | 0.00 | 86 | 1012.2 |
| 20260505061003 | 46 | 20 | 2.0 | 8.0 | 0.00 | 0.00 | 0.00 | 86 | 1012.0 |
| 20260505060503 | 46 | 21 | 2.0 | 8.0 | 0.00 | 0.00 | 0.00 | 86 | 1012.2 |
| 20260505060003 | 46 | 20 | 3.0 | 8.0 | 0.00 | 0.00 | 0.00 | 86 | 1012.0 |
| 20260505055503 | 46 | 19 | 4.0 | 8.0 | 0.00 | 0.00 | 0.00 | 87 | 1012.1 |
| 20260505055003 | 46 | 22 | 4.0 | 8.0 | 0.00 | 0.00 | 0.00 | 87 | 1012.2 |
| 20260505054503 | 46 | 18 | 3.0 | 8.0 | 0.00 | 0.00 | 0.00 | 87 | 1012.0 |
| 20260505054003 | 46 | 13 | 4.0 | 10.0 | 0.00 | 0.00 | 0.00 | 87 | 1012.1 |
| 20260505053503 | 45 | 22 | 4.0 | 10.0 | 0.00 | 0.00 | 0.00 | 87 | 1012.2 |
| 20260505053003 | 45 | 22 | 3.0 | 10.0 | 0.00 | 0.00 | 0.00 | 87 | 1012.1 |
| 20260505052503 | 45 | 18 | 3.0 | 5.0 | 0.00 | 0.00 | 0.00 | 87 | 1012.1 |
| 20260505052003 | 44 | 17 | 3.0 | 7.0 | 0.00 | 0.00 | 0.00 | 87 | 1012.3 |
| 20260505051503 | 44 | 19 | 2.0 | 7.0 | 0.00 | 0.00 | 0.00 | 87 | 1012.2 |
| 20260505051003 | 44 | 21 | 2.0 | 5.0 | 0.00 | 0.00 | 0.00 | 87 | 1012.0 |
| 20260505050503 | 44 | 21 | 2.0 | 5.0 | 0.00 | 0.00 | 0.00 | 87 | 1012.0 |
| 20260505041503 | 43 | 17 | 0.0 | 3.0 | 0.00 | 0.00 | 0.00 | 86 | 1012.0 |
| 20260505041003 | 43 | 16 | 0.0 | 4.0 | 0.00 | 0.00 | 0.00 | 86 | 1012.3 |
| 20260505040503 | 43 | 17 | 1.0 | 5.0 | 0.00 | 0.00 | 0.00 | 86 | 1012.1 |
| 20260505040004 | 43 | 17 | 1.0 | 5.0 | 0.00 | 0.00 | 0.00 | 86 | 1012.2 |
| 20260505035503 | 43 | 16 | 1.0 | 5.0 | 0.00 | 0.00 | 0.00 | 86 | 1012.0 |
| 20260505035003 | 43 | 18 | 1.0 | 5.0 | 0.00 | 0.00 | 0.00 | 86 | 1012.0 |
| 20260505034723 | 43 | 17 | 1.0 | 5.0 | 0.00 | 0.00 | 0.00 | 86 | 1012.1 |
| 20260505034003 | 43 | 18 | 2.0 | 7.0 | 0.00 | 0.00 | 0.00 | 86 | 1012.2 |
| 20260505033503 | 43 | 18 | 2.0 | 7.0 | 0.00 | 0.00 | 0.00 | 86 | 1012.1 |
| 20260505033217 | 43 | 16 | 2.0 | 7.0 | 0.00 | 0.00 | 0.00 | 86 | 1012.1 |
| 20260505032503 | 44 | 17 | 2.0 | 4.0 | 0.00 | 0.00 | 0.00 | 86 | 1012.1 |
| 20260505032003 | 44 | 17 | 2.0 | 4.0 | 0.00 | 0.00 | 0.00 | 86 | 1012.3 |
| 20260505031503 | 43 | 17 | 1.0 | 4.0 | 0.00 | 0.00 | 0.00 | 86 | 1012.3 |
| 20260505031003 | 43 | 18 | 1.0 | 4.0 | 0.00 | 0.00 | 0.00 | 86 | 1012.2 |
| 20260505030503 | 43 | 16 | 1.0 | 3.0 | 0.00 | 0.00 | 0.00 | 86 | 1012.4 |
| 20260505030003 | 43 | 18 | 0.0 | 3.0 | 0.00 | 0.00 | 0.00 | 85 | 1012.3 |
| 20260505025503 | 44 | 18 | 0.0 | 4.0 | 0.00 | 0.00 | 0.00 | 86 | 1012.4 |
| 20260505025003 | 44 | 16 | 0.0 | 4.0 | 0.00 | 0.00 | 0.00 | 86 | 1012.4 |
| 20260505024718 | 43 | 16 | 0.0 | 3.0 | 0.00 | 0.00 | 0.00 | 85 | 1012.2 |
| 20260505024217 | 44 | 16 | 0.0 | 1.0 | 0.00 | 0.00 | 0.00 | 85 | 1012.3 |
| 20260505023718 | 44 | 0 | 0.0 | 0.0 | 0.00 | 0.00 | 0.00 | 85 | 1012.4 |
| 20260505023003 | 44 | 18 | 0.0 | 1.0 | 0.00 | 0.00 | 0.00 | 85 | 1012.2 |
| 20260505022503 | 44 | 18 | 0.0 | 1.0 | 0.00 | 0.00 | 0.00 | 85 | 1012.3 |
| 20260505022003 | 44 | 18 | 0.0 | 1.0 | 0.00 | 0.00 | 0.00 | 85 | 1012.4 |
| 20260505021503 | 44 | 0 | 0.0 | 0.0 | 0.00 | 0.00 | 0.00 | 84 | 1012.5 |
| 20260505021003 | 44 | 0 | 0.0 | 0.0 | 0.00 | 0.00 | 0.00 | 84 | 1012.5 |
| 20260505020503 | 44 | 17 | 0.0 | 3.0 | 0.00 | 0.00 | 0.00 | 84 | 1012.3 |
| 20260505020003 | 45 | 18 | 0.0 | 3.0 | 0.00 | 0.00 | 0.00 | 84 | 1012.4 |
| 20260505015503 | 45 | 19 | 1.0 | 4.0 | 0.00 | 0.00 | 0.00 | 84 | 1012.3 |
| 20260505015003 | 45 | 20 | 1.0 | 4.0 | 0.00 | 0.00 | 0.00 | 84 | 1012.7 |
| 20260505014503 | 45 | 20 | 1.0 | 4.0 | 0.00 | 0.00 | 0.00 | 84 | 1012.4 |
| 20260505014003 | 45 | 20 | 1.0 | 4.0 | 0.00 | 0.00 | 0.00 | 84 | 1012.3 |
| 20260505013503 | 45 | 21 | 0.0 | 3.0 | 0.00 | 0.00 | 0.00 | 85 | 1012.4 |
| 20260505013003 | 45 | 21 | 0.0 | 3.0 | 0.00 | 0.00 | 0.00 | 85 | 1012.4 |
| 20260505012503 | 45 | 24 | 1.0 | 3.0 | 0.00 | 0.00 | 0.00 | 84 | 1012.6 |
| 20260505012003 | 45 | 24 | 1.0 | 3.0 | 0.00 | 0.00 | 0.00 | 84 | 1012.5 |
| 20260505011503 | 45 | 24 | 0.0 | 3.0 | 0.00 | 0.00 | 0.00 | 84 | 1012.4 |
| 20260505011003 | 45 | 28 | 0.0 | 4.0 | 0.00 | 0.00 | 0.00 | 84 | 1012.6 |
| 20260505010503 | 45 | 28 | 0.0 | 4.0 | 0.00 | 0.00 | 0.00 | 84 | 1012.5 |
| 20260505010218 | 45 | 28 | 0.0 | 4.0 | 0.00 | 0.00 | 0.00 | 84 | 1012.4 |
| 20260505005503 | 45 | 26 | 0.0 | 1.0 | 0.00 | 0.00 | 0.00 | 84 | 1012.5 |
| 20260505005004 | 45 | 0 | 0.0 | 0.0 | 0.00 | 0.00 | 0.00 | 84 | 1012.7 |
| 20260505004503 | 45 | 0 | 0.0 | 0.0 | 0.00 | 0.00 | 0.00 | 84 | 1012.7 |
| 20260505004003 | 45 | 0 | 0.0 | 0.0 | 0.00 | 0.00 | 0.00 | 84 | 1012.5 |
| 20260505003503 | 45 | 0 | 0.0 | 0.0 | 0.00 | 0.00 | 0.00 | 84 | 1012.8 |
| 20260505003218 | 45 | 0 | 0.0 | 0.0 | 0.00 | 0.00 | 0.00 | 84 | 1012.7 |